Time,TemperatureF,DewpointF,PressureIn,WindDirection,WindDirectionDegrees,WindSpeedMPH,WindSpeedGustMPH,Humidity,HourlyPrecipIn,Conditions,Clouds,dailyrainin,SoftwareType,DateUTC
2014-02-19 00:01:00,42.3,35.3,30.16,WSW,239,0.0,0.0,76,0.00,,---,0.00,VWS V13.00,2014-02-19 05:01:00,
2014-02-19 00:06:00,42.1,35.1,30.16,WSW,239,0.0,0.0,76,0.00,,---,0.00,VWS V13.00,2014-02-19 05:06:00,
2014-02-19 00:11:00,42.0,35.0,30.16,WSW,239,0.0,0.0,76,0.00,,---,0.00,VWS V13.00,2014-02-19 05:11:00,
2014-02-19 00:16:00,42.0,35.0,30.16,WSW,239,0.0,0.0,76,0.00,,---,0.00,VWS V13.00,2014-02-19 05:16:00,
2014-02-19 00:21:00,41.9,34.9,30.16,WSW,239,0.0,0.0,76,0.00,,---,0.00,VWS V13.00,2014-02-19 05:21:00,
2014-02-19 00:26:00,41.8,34.8,30.16,WSW,239,0.0,0.0,76,0.00,,---,0.00,VWS V13.00,2014-02-19 05:26:00,
2014-02-19 00:31:00,41.7,34.7,30.16,WSW,239,0.0,0.0,76,0.00,,---,0.00,VWS V13.00,2014-02-19 05:31:00,
2014-02-19 00:36:00,41.7,34.7,30.16,WSW,239,0.0,0.0,76,0.00,,---,0.00,VWS V13.00,2014-02-19 05:36:00,
2014-02-19 00:41:00,41.7,34.7,30.16,WSW,239,0.0,0.0,76,0.00,,---,0.00,VWS V13.00,2014-02-19 05:41:00,
2014-02-19 00:46:00,41.9,34.9,30.15,WSW,239,0.0,0.0,76,0.00,,---,0.00,VWS V13.00,2014-02-19 05:46:00,
2014-02-19 00:51:00,42.0,35.0,30.15,WSW,239,0.0,0.0,76,0.00,,---,0.00,VWS V13.00,2014-02-19 05:51:00,
2014-02-19 00:56:00,42.0,35.0,30.15,WSW,239,0.0,0.0,76,0.00,,---,0.00,VWS V13.00,2014-02-19 05:56:00,
2014-02-19 01:01:00,42.1,35.1,30.15,WSW,239,0.0,0.0,76,0.00,,---,0.00,VWS V13.00,2014-02-19 06:01:00,
2014-02-19 01:06:00,42.1,35.1,30.15,WSW,239,0.0,0.0,76,0.00,,---,0.00,VWS V13.00,2014-02-19 06:06:00,
2014-02-19 01:11:00,42.2,35.2,30.15,WSW,239,0.0,0.0,76,0.00,,---,0.00,VWS V13.00,2014-02-19 06:11:00,
2014-02-19 01:16:00,42.3,35.3,30.15,WSW,239,0.0,0.0,76,0.00,,---,0.00,VWS V13.00,2014-02-19 06:16:00,
2014-02-19 01:21:00,42.4,35.7,30.14,WSW,239,0.0,0.0,77,0.00,,---,0.00,VWS V13.00,2014-02-19 06:21:00,
2014-02-19 01:26:00,42.5,35.8,30.14,WSW,239,0.0,0.0,77,0.00,,---,0.00,VWS V13.00,2014-02-19 06:26:00,
2014-02-19 01:31:00,42.7,36.0,30.14,WSW,239,0.0,0.0,77,0.00,,---,0.00,VWS V13.00,2014-02-19 06:31:00,
2014-02-19 01:36:00,42.8,36.1,30.14,WSW,239,0.0,0.0,77,0.00,,---,0.00,VWS V13.00,2014-02-19 06:36:00,
2014-02-19 01:41:00,42.9,36.2,30.14,WSW,239,0.0,0.0,77,0.00,,---,0.00,VWS V13.00,2014-02-19 06:41:00,
2014-02-19 01:46:00,43.0,36.3,30.14,WSW,239,0.0,0.0,77,0.00,,---,0.00,VWS V13.00,2014-02-19 06:46:00,
2014-02-19 01:51:00,43.1,36.4,30.13,WSW,239,0.0,0.0,77,0.00,,---,0.00,VWS V13.00,2014-02-19 06:51:00,
2014-02-19 01:56:00,43.1,36.4,30.13,WSW,239,0.0,0.0,77,0.00,,---,0.00,VWS V13.00,2014-02-19 06:56:00,
2014-02-19 02:01:00,43.1,36.4,30.13,WSW,239,0.0,0.0,77,0.00,,---,0.00,VWS V13.00,2014-02-19 07:01:00,
2014-02-19 02:06:00,43.1,36.4,30.13,WSW,239,0.0,0.0,77,0.00,,---,0.00,VWS V13.00,2014-02-19 07:06:00,
2014-02-19 02:11:00,43.1,36.4,30.12,WSW,239,0.0,0.0,77,0.00,,---,0.00,VWS V13.00,2014-02-19 07:11:00,
2014-02-19 02:16:00,43.2,36.5,30.12,WSW,239,0.0,0.0,77,0.00,,---,0.00,VWS V13.00,2014-02-19 07:16:00,
2014-02-19 02:21:00,43.3,36.6,30.12,WSW,239,0.0,0.0,77,0.00,,---,0.00,VWS V13.00,2014-02-19 07:21:00,
2014-02-19 02:26:00,43.3,36.6,30.12,WSW,239,0.0,0.0,77,0.00,,---,0.00,VWS V13.00,2014-02-19 07:26:00,
2014-02-19 02:31:00,43.2,36.5,30.12,WSW,239,0.0,2.0,77,0.00,,---,0.00,VWS V13.00,2014-02-19 07:31:00,
2014-02-19 02:36:00,43.3,36.6,30.12,WSW,239,0.0,0.0,77,0.00,,---,0.00,VWS V13.00,2014-02-19 07:36:00,
2014-02-19 02:41:00,43.3,36.6,30.12,WSW,239,0.0,0.0,77,0.00,,---,0.00,VWS V13.00,2014-02-19 07:41:00,
2014-02-19 02:46:00,43.3,36.6,30.11,WSW,239,0.0,0.0,77,0.00,,---,0.00,VWS V13.00,2014-02-19 07:46:00,
2014-02-19 02:51:00,43.4,36.7,30.11,WSW,239,0.0,0.0,77,0.00,,---,0.00,VWS V13.00,2014-02-19 07:51:00,
2014-02-19 02:56:00,43.6,36.9,30.10,WSW,239,0.0,2.0,77,0.00,,---,0.00,VWS V13.00,2014-02-19 07:56:00,
2014-02-19 03:01:00,43.6,36.9,30.10,West,260,2.0,2.0,77,0.00,,---,0.00,VWS V13.00,2014-02-19 08:01:00,
2014-02-19 03:06:00,43.8,37.4,30.11,NNE,18,0.0,3.0,78,0.00,,---,0.00,VWS V13.00,2014-02-19 08:06:00,
2014-02-19 03:11:00,43.9,37.5,30.10,NE,34,3.0,3.0,78,0.00,,---,0.00,VWS V13.00,2014-02-19 08:11:00,
2014-02-19 03:16:00,44.2,37.8,30.10,NE,34,1.0,4.0,78,0.00,,---,0.00,VWS V13.00,2014-02-19 08:16:00,
2014-02-19 03:21:00,44.5,38.1,30.10,NE,34,0.0,4.0,78,0.00,,---,0.00,VWS V13.00,2014-02-19 08:21:00,
2014-02-19 03:26:00,44.6,38.2,30.10,NE,34,0.0,4.0,78,0.00,,---,0.00,VWS V13.00,2014-02-19 08:26:00,
2014-02-19 03:31:00,44.7,38.3,30.10,NE,34,0.0,4.0,78,0.00,,---,0.00,VWS V13.00,2014-02-19 08:31:00,
2014-02-19 03:36:00,44.8,38.4,30.09,NE,34,0.0,0.0,78,0.00,,---,0.00,VWS V13.00,2014-02-19 08:36:00,
2014-02-19 03:41:00,45.0,38.6,30.09,NE,34,0.0,0.0,78,0.00,,---,0.00,VWS V13.00,2014-02-19 08:41:00,
2014-02-19 03:46:00,45.0,38.6,30.09,NE,34,0.0,0.0,78,0.00,,---,0.00,VWS V13.00,2014-02-19 08:46:00,
2014-02-19 03:51:00,45.1,38.7,30.09,NE,34,0.0,0.0,78,0.00,,---,0.00,VWS V13.00,2014-02-19 08:51:00,
2014-02-19 03:56:00,45.3,38.9,30.08,NE,34,0.0,0.0,78,0.00,,---,0.00,VWS V13.00,2014-02-19 08:56:00,
2014-02-19 04:01:00,45.5,39.0,30.09,NE,34,0.0,0.0,78,0.00,,---,0.00,VWS V13.00,2014-02-19 09:01:00,
2014-02-19 04:06:00,45.7,39.2,30.09,NE,34,0.0,0.0,78,0.00,,---,0.00,VWS V13.00,2014-02-19 09:06:00,
2014-02-19 04:11:00,45.9,39.4,30.09,NE,34,0.0,0.0,78,0.00,,---,0.00,VWS V13.00,2014-02-19 09:11:00,
2014-02-19 04:16:00,46.0,39.5,30.08,NE,41,3.0,3.0,78,0.00,,---,0.00,VWS V13.00,2014-02-19 09:16:00,
2014-02-19 04:21:00,46.0,39.5,30.08,NE,41,0.0,3.0,78,0.00,,---,0.00,VWS V13.00,2014-02-19 09:21:00,
2014-02-19 04:26:00,46.1,39.6,30.08,NE,45,2.0,3.0,78,0.00,,---,0.00,VWS V13.00,2014-02-19 09:26:00,
2014-02-19 04:31:00,46.2,39.7,30.08,East,90,2.0,4.0,78,0.00,,---,0.00,VWS V13.00,2014-02-19 09:31:00,
2014-02-19 04:36:00,46.3,39.8,30.08,East,90,2.0,4.0,78,0.00,,---,0.00,VWS V13.00,2014-02-19 09:36:00,
2014-02-19 04:41:00,46.4,39.9,30.08,East,90,4.0,4.0,78,0.00,,---,0.00,VWS V13.00,2014-02-19 09:41:00,
2014-02-19 04:46:00,46.7,40.5,30.08,East,90,0.0,4.0,79,0.00,,---,0.00,VWS V13.00,2014-02-19 09:46:00,
2014-02-19 04:51:00,47.1,40.6,30.08,East,90,1.0,4.0,78,0.00,,---,0.00,VWS V13.00,2014-02-19 09:51:00,
2014-02-19 04:56:00,47.4,41.2,30.08,East,90,2.0,4.0,79,0.00,,---,0.00,VWS V13.00,2014-02-19 09:56:00,
2014-02-19 05:01:00,47.8,41.6,30.08,East,92,2.0,5.0,79,0.00,,---,0.00,VWS V13.00,2014-02-19 10:01:00,
2014-02-19 05:06:00,48.2,42.0,30.08,East,92,2.0,4.0,79,0.00,,---,0.00,VWS V13.00,2014-02-19 10:06:00,
2014-02-19 05:11:00,48.4,42.2,30.08,East,98,2.0,5.0,79,0.00,,---,0.00,VWS V13.00,2014-02-19 10:11:00,
2014-02-19 05:16:00,48.6,42.4,30.07,ESE,108,5.0,6.0,79,0.00,,---,0.00,VWS V13.00,2014-02-19 10:16:00,
2014-02-19 05:21:00,48.9,42.7,30.07,East,94,4.0,6.0,79,0.00,,---,0.00,VWS V13.00,2014-02-19 10:21:00,
2014-02-19 05:26:00,49.1,42.9,30.07,East,101,5.0,6.0,79,0.00,,---,0.00,VWS V13.00,2014-02-19 10:26:00,
2014-02-19 05:31:00,49.2,43.0,30.07,ESE,103,4.0,6.0,79,0.00,,---,0.00,VWS V13.00,2014-02-19 10:31:00,
2014-02-19 05:36:00,49.3,43.1,30.06,ESE,103,2.0,5.0,79,0.00,,---,0.00,VWS V13.00,2014-02-19 10:36:00,
2014-02-19 05:41:00,49.4,43.2,30.06,ESE,104,5.0,5.0,79,0.00,,---,0.00,VWS V13.00,2014-02-19 10:41:00,
2014-02-19 05:46:00,49.5,43.3,30.06,East,83,3.0,6.0,79,0.00,,---,0.00,VWS V13.00,2014-02-19 10:46:00,
2014-02-19 05:51:00,49.5,43.3,30.06,ESE,105,4.0,6.0,79,0.00,,---,0.00,VWS V13.00,2014-02-19 10:51:00,
2014-02-19 05:56:00,49.5,43.3,30.05,East,88,2.0,6.0,79,0.00,,---,0.00,VWS V13.00,2014-02-19 10:56:00,
2014-02-19 06:01:00,49.5,43.3,30.06,East,88,0.0,6.0,79,0.00,,---,0.00,VWS V13.00,2014-02-19 11:01:00,
2014-02-19 06:06:00,49.4,43.2,30.06,East,88,2.0,2.0,79,0.00,,---,0.00,VWS V13.00,2014-02-19 11:06:00,
2014-02-19 06:11:00,49.5,43.3,30.06,East,88,2.0,4.0,79,0.00,,---,0.00,VWS V13.00,2014-02-19 11:11:00,
2014-02-19 06:16:00,49.5,43.3,30.06,East,88,2.0,4.0,79,0.00,,---,0.00,VWS V13.00,2014-02-19 11:16:00,
2014-02-19 06:21:00,49.6,43.4,30.06,East,88,3.0,4.0,79,0.00,,---,0.00,VWS V13.00,2014-02-19 11:21:00,
2014-02-19 06:26:00,49.6,43.4,30.05,East,88,3.0,4.0,79,0.00,,---,0.00,VWS V13.00,2014-02-19 11:26:00,
2014-02-19 06:31:00,49.8,43.6,30.05,ESE,115,5.0,7.0,79,0.00,,---,0.00,VWS V13.00,2014-02-19 11:31:00,
2014-02-19 06:36:00,49.9,43.7,30.05,SE,127,2.0,4.0,79,0.00,,---,0.00,VWS V13.00,2014-02-19 11:36:00,
2014-02-19 06:41:00,50.0,43.8,30.05,SE,128,2.0,5.0,79,0.00,,---,0.00,VWS V13.00,2014-02-19 11:41:00,
2014-02-19 06:46:00,50.2,44.0,30.05,ESE,123,1.0,5.0,79,0.00,,---,0.00,VWS V13.00,2014-02-19 11:46:00,
2014-02-19 06:51:00,50.4,44.1,30.05,ESE,123,2.0,5.0,79,0.00,,---,0.00,VWS V13.00,2014-02-19 11:51:00,
2014-02-19 06:56:00,50.4,44.1,30.05,ESE,121,0.0,5.0,79,0.00,,---,0.00,VWS V13.00,2014-02-19 11:56:00,
2014-02-19 07:01:00,50.6,44.3,30.06,SSE,164,4.0,5.0,79,0.00,,---,0.00,VWS V13.00,2014-02-19 12:01:00,
2014-02-19 07:06:00,50.9,45.0,30.05,SSW,210,3.0,7.0,80,0.00,,---,0.00,VWS V13.00,2014-02-19 12:06:00,
2014-02-19 07:11:00,51.3,45.3,30.05,SSW,198,2.0,7.0,80,0.00,,---,0.00,VWS V13.00,2014-02-19 12:11:00,
2014-02-19 07:16:00,51.6,45.6,30.05,South,182,0.0,7.0,80,0.00,,---,0.00,VWS V13.00,2014-02-19 12:16:00,
2014-02-19 07:21:00,51.7,45.7,30.05,SSW,195,3.0,7.0,80,0.00,,---,0.00,VWS V13.00,2014-02-19 12:21:00,
2014-02-19 07:26:00,51.8,45.8,30.05,SSW,196,7.0,7.0,80,0.00,,---,0.00,VWS V13.00,2014-02-19 12:26:00,
2014-02-19 07:31:00,52.2,46.2,30.05,SW,222,5.0,9.0,80,0.00,,---,0.00,VWS V13.00,2014-02-19 12:31:00,
2014-02-19 07:36:00,52.9,46.9,30.05,SSW,203,4.0,8.0,80,0.01,,---,0.01,VWS V13.00,2014-02-19 12:36:00,
2014-02-19 07:41:00,53.5,47.5,30.05,WSW,243,6.0,8.0,80,0.01,,---,0.01,VWS V13.00,2014-02-19 12:41:00,
2014-02-19 07:46:00,53.9,47.9,30.06,SSW,211,5.0,9.0,80,0.01,,---,0.01,VWS V13.00,2014-02-19 12:46:00,
2014-02-19 07:51:00,54.1,48.1,30.06,SW,229,6.0,10.0,80,0.01,,---,0.01,VWS V13.00,2014-02-19 12:51:00,
2014-02-19 07:56:00,54.4,48.4,30.06,SW,232,8.0,13.0,80,0.01,,---,0.01,VWS V13.00,2014-02-19 12:56:00,
2014-02-19 08:01:00,54.8,48.8,30.06,SW,216,6.0,13.0,80,0.01,,---,0.01,VWS V13.00,2014-02-19 13:01:00,
2014-02-19 08:06:00,55.0,49.0,30.06,WSW,239,7.0,12.0,80,0.01,,---,0.01,VWS V13.00,2014-02-19 13:06:00,
2014-02-19 08:11:00,55.2,49.2,30.07,WSW,245,6.0,14.0,80,0.01,,---,0.01,VWS V13.00,2014-02-19 13:11:00,
2014-02-19 08:16:00,55.4,49.3,30.07,SW,219,14.0,14.0,80,0.01,,---,0.01,VWS V13.00,2014-02-19 13:16:00,
2014-02-19 08:21:00,55.4,49.3,30.07,SW,215,5.0,14.0,80,0.01,,---,0.01,VWS V13.00,2014-02-19 13:21:00,
2014-02-19 08:26:00,55.5,49.4,30.07,SW,229,10.0,14.0,80,0.01,,---,0.01,VWS V13.00,2014-02-19 13:26:00,
2014-02-19 08:31:00,55.5,49.4,30.07,WNW,284,6.0,15.0,80,0.01,,---,0.01,VWS V13.00,2014-02-19 13:31:00,
2014-02-19 08:36:00,55.3,49.2,30.07,SW,229,10.0,13.0,80,0.01,,---,0.01,VWS V13.00,2014-02-19 13:36:00,
2014-02-19 08:41:00,55.0,49.0,30.07,SW,236,7.0,15.0,80,0.01,,---,0.01,VWS V13.00,2014-02-19 13:41:00,
2014-02-19 08:46:00,54.8,48.8,30.08,WSW,254,6.0,17.0,80,0.01,,---,0.01,VWS V13.00,2014-02-19 13:46:00,
2014-02-19 08:51:00,54.7,48.7,30.08,WSW,254,8.0,17.0,80,0.01,,---,0.01,VWS V13.00,2014-02-19 13:51:00,
2014-02-19 08:56:00,54.8,48.8,30.07,SSW,193,7.0,17.0,80,0.01,,---,0.01,VWS V13.00,2014-02-19 13:56:00,
2014-02-19 09:01:00,54.6,48.6,30.07,SW,232,8.0,17.0,80,0.01,,---,0.01,VWS V13.00,2014-02-19 14:01:00,
2014-02-19 09:06:00,54.6,48.6,30.07,SW,221,9.0,13.0,80,0.00,,---,0.01,VWS V13.00,2014-02-19 14:06:00,
2014-02-19 09:11:00,54.6,48.9,30.07,WSW,247,7.0,13.0,81,0.00,,---,0.01,VWS V13.00,2014-02-19 14:11:00,
2014-02-19 09:16:00,54.9,48.9,30.07,West,267,5.0,16.0,80,0.00,,---,0.01,VWS V13.00,2014-02-19 14:16:00,
2014-02-19 09:21:00,55.3,49.6,30.08,West,277,7.0,16.0,81,0.00,,---,0.01,VWS V13.00,2014-02-19 14:21:00,
2014-02-19 09:26:00,55.8,50.1,30.08,WSW,239,8.0,16.0,81,0.00,,---,0.01,VWS V13.00,2014-02-19 14:26:00,
2014-02-19 09:31:00,56.2,50.5,30.08,SW,234,6.0,16.0,81,0.00,,---,0.01,VWS V13.00,2014-02-19 14:31:00,
2014-02-19 09:36:00,56.9,51.1,30.08,WSW,258,8.0,11.0,81,0.00,,---,0.01,VWS V13.00,2014-02-19 14:36:00,
2014-02-19 09:41:00,57.5,51.7,30.08,West,262,11.0,14.0,81,0.00,,---,0.01,VWS V13.00,2014-02-19 14:41:00,
2014-02-19 09:46:00,57.9,52.1,30.08,WSW,251,4.0,17.0,81,0.00,,---,0.01,VWS V13.00,2014-02-19 14:46:00,
2014-02-19 09:51:00,58.2,52.4,30.08,West,265,4.0,17.0,81,0.00,,---,0.01,VWS V13.00,2014-02-19 14:51:00,
2014-02-19 09:56:00,58.2,52.4,30.07,WSW,240,9.0,17.0,81,0.00,,---,0.01,VWS V13.00,2014-02-19 14:56:00,
2014-02-19 10:01:00,58.0,51.9,30.07,SSW,196,7.0,17.0,80,0.00,,---,0.01,VWS V13.00,2014-02-19 15:01:00,
2014-02-19 10:06:00,57.7,51.6,30.07,SW,225,5.0,18.0,80,0.00,,---,0.01,VWS V13.00,2014-02-19 15:06:00,
2014-02-19 10:11:00,57.3,51.2,30.07,WSW,239,9.0,18.0,80,0.00,,---,0.01,VWS V13.00,2014-02-19 15:11:00,
2014-02-19 10:16:00,57.2,51.1,30.07,SW,232,10.0,18.0,80,0.00,,---,0.01,VWS V13.00,2014-02-19 15:16:00,
2014-02-19 10:21:00,57.1,51.0,30.07,SW,223,4.0,18.0,80,0.00,,---,0.01,VWS V13.00,2014-02-19 15:21:00,
2014-02-19 10:26:00,57.2,51.1,30.07,West,261,6.0,18.0,80,0.00,,---,0.01,VWS V13.00,2014-02-19 15:26:00,
2014-02-19 10:31:00,57.1,51.0,30.07,SW,233,6.0,18.0,80,0.00,,---,0.01,VWS V13.00,2014-02-19 15:31:00,
2014-02-19 10:36:00,57.0,50.9,30.06,WSW,240,7.0,9.0,80,0.00,,---,0.01,VWS V13.00,2014-02-19 15:36:00,
2014-02-19 10:41:00,57.1,51.0,30.06,SSW,205,6.0,13.0,80,0.00,,---,0.01,VWS V13.00,2014-02-19 15:41:00,
2014-02-19 10:46:00,57.2,51.1,30.06,SW,235,7.0,13.0,80,0.00,,---,0.01,VWS V13.00,2014-02-19 15:46:00,
2014-02-19 10:51:00,57.4,51.3,30.06,SW,217,6.0,13.0,80,0.00,,---,0.01,VWS V13.00,2014-02-19 15:51:00,
2014-02-19 10:56:00,57.4,51.3,30.05,SW,224,9.0,13.0,80,0.00,,---,0.01,VWS V13.00,2014-02-19 15:56:00,
2014-02-19 11:01:00,57.3,51.2,30.05,SW,229,3.0,13.0,80,0.00,,---,0.01,VWS V13.00,2014-02-19 16:01:00,
2014-02-19 11:06:00,57.4,51.3,30.05,SW,225,5.0,8.0,80,0.00,,---,0.01,VWS V13.00,2014-02-19 16:06:00,
2014-02-19 11:08:00,57.5,51.4,30.05,SW,236,4.0,8.0,80,0.00,,---,0.01,VWS V13.00,2014-02-19 16:08:00,
2014-02-19 11:13:00,57.5,51.4,30.04,SW,215,4.0,11.0,80,0.00,,---,0.01,VWS V13.00,2014-02-19 16:13:00,
2014-02-19 11:18:00,57.5,51.4,30.04,SSE,155,5.0,13.0,80,0.00,,---,0.01,VWS V13.00,2014-02-19 16:18:00,
2014-02-19 11:23:00,57.6,51.5,30.03,SSW,213,5.0,13.0,80,0.00,,---,0.01,VWS V13.00,2014-02-19 16:23:00,
2014-02-19 11:28:00,57.9,51.8,30.03,SW,236,4.0,13.0,80,0.00,,---,0.01,VWS V13.00,2014-02-19 16:28:00,
2014-02-19 11:33:00,58.0,51.9,30.03,SSW,207,10.0,12.0,80,0.00,,---,0.01,VWS V13.00,2014-02-19 16:33:00,
2014-02-19 11:38:00,58.0,51.9,30.02,SSW,202,2.0,13.0,80,0.00,,---,0.01,VWS V13.00,2014-02-19 16:38:00,
2014-02-19 11:43:00,58.1,52.0,30.02,SW,221,3.0,13.0,80,0.00,,---,0.01,VWS V13.00,2014-02-19 16:43:00,
2014-02-19 11:48:00,58.2,52.1,30.02,WSW,239,4.0,13.0,80,0.00,,---,0.01,VWS V13.00,2014-02-19 16:48:00,
2014-02-19 11:53:00,58.2,52.1,30.01,SSW,192,10.0,14.0,80,0.00,,---,0.01,VWS V13.00,2014-02-19 16:53:00,
2014-02-19 11:58:00,58.3,52.2,30.01,SW,225,5.0,14.0,80,0.00,,---,0.01,VWS V13.00,2014-02-19 16:58:00,
2014-02-19 12:03:00,58.6,52.5,30.01,SSW,196,6.0,13.0,80,0.00,,---,0.01,VWS V13.00,2014-02-19 17:03:00,
2014-02-19 12:08:00,58.5,52.4,30.00,SW,221,5.0,14.0,80,0.00,,---,0.01,VWS V13.00,2014-02-19 17:08:00,
2014-02-19 12:13:00,58.5,52.4,30.00,SSW,210,7.0,15.0,80,0.00,,---,0.01,VWS V13.00,2014-02-19 17:13:00,
2014-02-19 12:18:00,58.6,52.5,30.00,SW,215,11.0,15.0,80,0.00,,---,0.01,VWS V13.00,2014-02-19 17:18:00,
2014-02-19 12:23:00,58.9,52.8,30.00,SW,219,7.0,15.0,80,0.00,,---,0.01,VWS V13.00,2014-02-19 17:23:00,
2014-02-19 12:28:00,59.0,52.8,29.99,SW,235,7.0,15.0,80,0.00,,---,0.01,VWS V13.00,2014-02-19 17:28:00,
2014-02-19 12:33:00,59.0,52.8,30.00,SW,226,5.0,15.0,80,0.00,,---,0.01,VWS V13.00,2014-02-19 17:33:00,
2014-02-19 12:38:00,59.0,52.5,29.99,SSW,205,8.0,15.0,79,0.00,,---,0.01,VWS V13.00,2014-02-19 17:38:00,
2014-02-19 12:43:00,59.2,52.7,29.99,SW,234,7.0,16.0,79,0.00,,---,0.01,VWS V13.00,2014-02-19 17:43:00,
2014-02-19 12:48:00,59.3,52.8,29.99,West,273,7.0,16.0,79,0.00,,---,0.01,VWS V13.00,2014-02-19 17:48:00,
2014-02-19 12:53:00,59.6,53.1,29.99,SW,231,12.0,16.0,79,0.00,,---,0.01,VWS V13.00,2014-02-19 17:53:00,
2014-02-19 12:58:00,59.8,53.3,29.98,West,265,6.0,16.0,79,0.00,,---,0.01,VWS V13.00,2014-02-19 17:58:00,
2014-02-19 13:03:00,59.8,53.3,29.98,West,261,6.0,9.0,79,0.00,,---,0.01,VWS V13.00,2014-02-19 18:03:00,
2014-02-19 13:08:00,59.8,53.3,29.98,SW,220,11.0,15.0,79,0.00,,---,0.01,VWS V13.00,2014-02-19 18:08:00,
2014-02-19 13:13:00,59.6,53.1,29.98,West,259,11.0,16.0,79,0.00,,---,0.01,VWS V13.00,2014-02-19 18:13:00,
2014-02-19 13:18:00,59.5,53.0,29.97,WSW,249,8.0,16.0,79,0.00,,---,0.01,VWS V13.00,2014-02-19 18:18:00,
2014-02-19 13:23:00,59.6,53.1,29.97,WSW,237,8.0,16.0,79,0.00,,---,0.01,VWS V13.00,2014-02-19 18:23:00,
2014-02-19 13:28:00,59.8,53.3,29.97,WSW,238,17.0,17.0,79,0.00,,---,0.01,VWS V13.00,2014-02-19 18:28:00,
2014-02-19 13:33:00,59.5,52.6,29.97,West,261,3.0,11.0,78,0.00,,---,0.01,VWS V13.00,2014-02-19 18:33:00,
2014-02-19 13:38:00,59.3,52.8,29.97,SSW,210,8.0,15.0,79,0.00,,---,0.01,VWS V13.00,2014-02-19 18:38:00,
2014-02-19 13:43:00,59.3,52.8,29.97,WSW,249,3.0,17.0,79,0.00,,---,0.01,VWS V13.00,2014-02-19 18:43:00,
2014-02-19 13:48:00,59.6,53.1,29.96,SW,222,8.0,17.0,79,0.00,,---,0.01,VWS V13.00,2014-02-19 18:48:00,
2014-02-19 13:53:00,59.8,52.9,29.96,SW,216,12.0,17.0,78,0.00,,---,0.01,VWS V13.00,2014-02-19 18:53:00,
2014-02-19 13:58:00,59.7,52.8,29.96,SSW,212,13.0,17.0,78,0.00,,---,0.01,VWS V13.00,2014-02-19 18:58:00,
2014-02-19 14:03:00,59.6,52.7,29.96,WSW,238,10.0,16.0,78,0.00,,---,0.01,VWS V13.00,2014-02-19 19:03:00,
2014-02-19 14:08:00,59.3,52.5,29.96,SSW,207,10.0,16.0,78,0.00,,---,0.01,VWS V13.00,2014-02-19 19:08:00,
2014-02-19 14:13:00,59.2,52.3,29.95,SW,236,7.0,16.0,78,0.00,,---,0.01,VWS V13.00,2014-02-19 19:13:00,
2014-02-19 14:18:00,59.0,52.2,29.95,SW,223,5.0,16.0,78,0.00,,---,0.01,VWS V13.00,2014-02-19 19:18:00,
2014-02-19 14:23:00,59.0,52.2,29.95,South,190,9.0,16.0,78,0.00,,---,0.01,VWS V13.00,2014-02-19 19:23:00,
2014-02-19 14:28:00,59.0,52.2,29.95,SW,223,10.0,16.0,78,0.00,,---,0.01,VWS V13.00,2014-02-19 19:28:00,
2014-02-19 14:33:00,59.0,52.2,29.95,WSW,248,13.0,16.0,78,0.00,,---,0.01,VWS V13.00,2014-02-19 19:33:00,
2014-02-19 14:38:00,59.2,52.3,29.95,SW,228,13.0,16.0,78,0.00,,---,0.01,VWS V13.00,2014-02-19 19:38:00,
2014-02-19 14:43:00,59.2,52.3,29.95,SW,235,11.0,16.0,78,0.00,,---,0.01,VWS V13.00,2014-02-19 19:43:00,
2014-02-19 14:48:00,59.0,52.2,29.95,SSW,195,11.0,16.0,78,0.00,,---,0.01,VWS V13.00,2014-02-19 19:48:00,
2014-02-19 14:53:00,59.0,52.2,29.95,SW,227,5.0,17.0,78,0.00,,---,0.01,VWS V13.00,2014-02-19 19:53:00,
2014-02-19 14:58:00,59.0,52.2,29.95,SW,227,9.0,17.0,78,0.00,,---,0.01,VWS V13.00,2014-02-19 19:58:00,
2014-02-19 15:03:00,58.8,52.0,29.95,West,279,7.0,16.0,78,0.00,,---,0.01,VWS V13.00,2014-02-19 20:03:00,
2014-02-19 15:08:00,58.7,51.9,29.95,SW,228,11.0,16.0,78,0.00,,---,0.01,VWS V13.00,2014-02-19 20:08:00,
2014-02-19 15:13:00,58.6,51.8,29.95,SW,223,13.0,16.0,78,0.00,,---,0.01,VWS V13.00,2014-02-19 20:13:00,
2014-02-19 15:18:00,58.5,51.7,29.95,SW,235,14.0,17.0,78,0.00,,---,0.01,VWS V13.00,2014-02-19 20:18:00,
2014-02-19 15:23:00,58.4,51.6,29.95,SW,223,11.0,17.0,78,0.00,,---,0.01,VWS V13.00,2014-02-19 20:23:00,
2014-02-19 15:28:00,58.4,51.6,29.95,WSW,256,12.0,17.0,78,0.00,,---,0.01,VWS V13.00,2014-02-19 20:28:00,
2014-02-19 15:33:00,58.1,50.9,29.95,SW,230,6.0,14.0,77,0.00,,---,0.01,VWS V13.00,2014-02-19 20:33:00,
2014-02-19 15:38:00,57.9,50.7,29.95,SSW,209,8.0,17.0,77,0.00,,---,0.01,VWS V13.00,2014-02-19 20:38:00,
2014-02-19 15:43:00,57.8,50.7,29.95,WSW,249,12.0,17.0,77,0.00,,---,0.01,VWS V13.00,2014-02-19 20:43:00,
2014-02-19 15:48:00,57.8,50.7,29.95,SW,232,13.0,17.0,77,0.00,,---,0.01,VWS V13.00,2014-02-19 20:48:00,
2014-02-19 15:53:00,57.8,50.7,29.95,WSW,238,9.0,18.0,77,0.00,,---,0.01,VWS V13.00,2014-02-19 20:53:00,
2014-02-19 15:58:00,57.7,50.5,29.95,West,269,5.0,18.0,77,0.00,,---,0.01,VWS V13.00,2014-02-19 20:58:00,
2014-02-19 16:03:00,57.7,50.9,29.96,WNW,286,8.0,12.0,78,0.00,,---,0.01,VWS V13.00,2014-02-19 21:03:00,
2014-02-19 16:08:00,57.7,50.9,29.96,SW,225,7.0,17.0,78,0.00,,---,0.01,VWS V13.00,2014-02-19 21:08:00,
2014-02-19 16:13:00,57.6,50.8,29.96,WSW,252,15.0,20.0,78,0.00,,---,0.01,VWS V13.00,2014-02-19 21:13:00,
2014-02-19 16:18:00,57.5,50.4,29.96,SW,214,13.0,20.0,77,0.00,,---,0.01,VWS V13.00,2014-02-19 21:18:00,
2014-02-19 16:23:00,57.2,50.1,29.96,WSW,240,6.0,20.0,77,0.00,,---,0.01,VWS V13.00,2014-02-19 21:23:00,
2014-02-19 16:28:00,57.0,49.9,29.97,WSW,245,11.0,20.0,77,0.00,,---,0.01,VWS V13.00,2014-02-19 21:28:00,
2014-02-19 16:33:00,56.9,49.8,29.97,WSW,240,10.0,15.0,77,0.00,,---,0.01,VWS V13.00,2014-02-19 21:33:00,
2014-02-19 16:38:00,56.8,50.0,29.97,West,260,12.0,17.0,78,0.00,,---,0.01,VWS V13.00,2014-02-19 21:38:00,
2014-02-19 16:43:00,56.7,49.9,29.97,WSW,244,10.0,18.0,78,0.00,,---,0.01,VWS V13.00,2014-02-19 21:43:00,
2014-02-19 16:47:00,56.6,49.8,29.97,SW,229,12.0,18.0,78,0.00,,---,0.01,VWS V13.00,2014-02-19 21:47:00,
2014-02-19 16:52:00,56.4,49.6,29.98,SSW,205,15.0,20.0,78,0.00,,---,0.01,VWS V13.00,2014-02-19 21:52:00,
2014-02-19 16:57:00,56.3,49.2,29.98,SW,234,14.0,20.0,77,0.00,,---,0.01,VWS V13.00,2014-02-19 21:57:00,
2014-02-19 17:02:00,56.2,49.1,29.98,WSW,254,8.0,17.0,77,0.00,,---,0.01,VWS V13.00,2014-02-19 22:02:00,
2014-02-19 17:07:00,56.1,49.3,29.99,WSW,238,10.0,17.0,78,0.00,,---,0.01,VWS V13.00,2014-02-19 22:07:00,
2014-02-19 17:12:00,56.0,49.2,29.98,SW,227,16.0,17.0,78,0.00,,---,0.01,VWS V13.00,2014-02-19 22:12:00,
2014-02-19 17:17:00,55.7,49.0,29.98,SW,223,7.0,19.0,78,0.00,,---,0.01,VWS V13.00,2014-02-19 22:17:00,
2014-02-19 17:22:00,55.5,48.4,29.99,WSW,242,6.0,19.0,77,0.00,,---,0.01,VWS V13.00,2014-02-19 22:22:00,
2014-02-19 17:27:00,55.2,48.5,29.99,SW,229,15.0,19.0,78,0.00,,---,0.01,VWS V13.00,2014-02-19 22:27:00,
2014-02-19 17:32:00,55.0,48.3,29.99,SW,234,11.0,15.0,78,0.00,,---,0.01,VWS V13.00,2014-02-19 22:32:00,
2014-02-19 17:37:00,54.7,48.0,29.99,SW,232,8.0,16.0,78,0.00,,---,0.01,VWS V13.00,2014-02-19 22:37:00,
2014-02-19 17:42:00,54.5,47.8,30.00,West,266,7.0,16.0,78,0.00,,---,0.01,VWS V13.00,2014-02-19 22:42:00,
2014-02-19 17:47:00,54.4,47.7,30.00,SW,231,8.0,17.0,78,0.00,,---,0.01,VWS V13.00,2014-02-19 22:47:00,
2014-02-19 17:52:00,54.2,47.5,30.00,WSW,256,9.0,17.0,78,0.00,,---,0.01,VWS V13.00,2014-02-19 22:52:00,
2014-02-19 17:57:00,54.1,47.4,30.00,SW,217,8.0,17.0,78,0.00,,---,0.01,VWS V13.00,2014-02-19 22:57:00,
2014-02-19 18:02:00,54.0,47.3,30.00,SW,233,9.0,14.0,78,0.00,,---,0.01,VWS V13.00,2014-02-19 23:02:00,
2014-02-19 18:07:00,53.9,47.2,30.00,SW,234,7.0,14.0,78,0.00,,---,0.01,VWS V13.00,2014-02-19 23:07:00,
2014-02-19 18:12:00,53.8,47.1,30.00,WSW,241,7.0,14.0,78,0.00,,---,0.01,VWS V13.00,2014-02-19 23:12:00,
2014-02-19 18:17:00,53.6,46.9,30.01,SSW,200,6.0,14.0,78,0.00,,---,0.01,VWS V13.00,2014-02-19 23:17:00,
2014-02-19 18:22:00,53.6,46.9,30.01,SSW,209,8.0,14.0,78,0.00,,---,0.01,VWS V13.00,2014-02-19 23:22:00,
2014-02-19 18:28:00,53.5,46.8,30.01,SSW,203,6.0,14.0,78,0.00,,---,0.01,VWS V13.00,2014-02-19 23:28:00,
2014-02-19 18:33:00,53.4,46.7,30.02,SSW,212,7.0,10.0,78,0.00,,---,0.01,VWS V13.00,2014-02-19 23:33:00,
2014-02-19 18:38:00,53.3,46.6,30.02,SSW,207,11.0,13.0,78,0.00,,---,0.01,VWS V13.00,2014-02-19 23:38:00,
2014-02-19 18:43:00,53.3,46.6,30.02,SSW,206,6.0,13.0,78,0.00,,---,0.01,VWS V13.00,2014-02-19 23:43:00,
2014-02-19 18:48:00,53.2,46.5,30.02,SSW,207,12.0,13.0,78,0.00,,---,0.01,VWS V13.00,2014-02-19 23:48:00,
2014-02-19 18:53:00,53.1,46.4,30.03,SW,228,9.0,13.0,78,0.00,,---,0.01,VWS V13.00,2014-02-19 23:53:00,
2014-02-19 18:58:00,53.0,46.3,30.03,SSW,209,11.0,15.0,78,0.00,,---,0.01,VWS V13.00,2014-02-19 23:58:00,
2014-02-19 19:03:00,52.9,46.2,30.03,SW,218,3.0,13.0,78,0.00,,---,0.01,VWS V13.00,2014-02-20 00:03:00,
2014-02-19 19:08:00,52.9,46.2,30.03,SW,219,8.0,13.0,78,0.00,,---,0.01,VWS V13.00,2014-02-20 00:08:00,
2014-02-19 19:13:00,52.8,46.1,30.03,SSW,207,4.0,13.0,78,0.00,,---,0.01,VWS V13.00,2014-02-20 00:13:00,
2014-02-19 19:18:00,52.6,46.0,30.03,SSW,207,3.0,13.0,78,0.00,,---,0.01,VWS V13.00,2014-02-20 00:18:00,
2014-02-19 19:23:00,52.6,46.0,30.03,SSW,208,9.0,13.0,78,0.00,,---,0.01,VWS V13.00,2014-02-20 00:23:00,
2014-02-19 19:28:00,52.5,45.8,30.03,SSW,209,4.0,13.0,78,0.00,,---,0.01,VWS V13.00,2014-02-20 00:28:00,
2014-02-19 19:33:00,52.5,45.8,30.04,SW,218,7.0,11.0,78,0.00,,---,0.01,VWS V13.00,2014-02-20 00:33:00,
2014-02-19 19:38:00,52.5,45.8,30.04,SW,217,11.0,11.0,78,0.00,,---,0.01,VWS V13.00,2014-02-20 00:38:00,
2014-02-19 19:43:00,52.6,46.0,30.04,SW,220,8.0,12.0,78,0.00,,---,0.01,VWS V13.00,2014-02-20 00:43:00,
2014-02-19 19:48:00,52.6,46.0,30.05,SW,216,5.0,12.0,78,0.00,,---,0.01,VWS V13.00,2014-02-20 00:48:00,
2014-02-19 19:53:00,52.6,46.0,30.05,SW,225,8.0,12.0,78,0.00,,---,0.01,VWS V13.00,2014-02-20 00:53:00,
2014-02-19 19:58:00,52.6,46.0,30.05,SSW,209,4.0,12.0,78,0.00,,---,0.01,VWS V13.00,2014-02-20 00:58:00,
2014-02-19 20:03:00,52.6,46.0,30.05,SSW,211,8.0,11.0,78,0.00,,---,0.01,VWS V13.00,2014-02-20 01:03:00,
2014-02-19 20:08:00,52.5,45.8,30.06,SW,233,5.0,11.0,78,0.00,,---,0.01,VWS V13.00,2014-02-20 01:08:00,
2014-02-19 20:13:00,52.5,45.8,30.06,SSW,211,10.0,11.0,78,0.00,,---,0.01,VWS V13.00,2014-02-20 01:13:00,
2014-02-19 20:18:00,52.4,45.8,30.06,South,179,8.0,12.0,78,0.00,,---,0.01,VWS V13.00,2014-02-20 01:18:00,
2014-02-19 20:23:00,52.4,45.8,30.06,SW,223,8.0,12.0,78,0.00,,---,0.01,VWS V13.00,2014-02-20 01:23:00,
2014-02-19 20:28:00,52.4,45.8,30.06,SW,223,7.0,12.0,78,0.00,,---,0.01,VWS V13.00,2014-02-20 01:28:00,
2014-02-19 20:33:00,52.3,45.7,30.06,SSW,211,8.0,8.0,78,0.00,,---,0.01,VWS V13.00,2014-02-20 01:33:00,
2014-02-19 20:38:00,52.3,45.7,30.06,SW,232,6.0,11.0,78,0.00,,---,0.01,VWS V13.00,2014-02-20 01:38:00,
2014-02-19 20:43:00,52.3,45.7,30.07,SSW,213,4.0,11.0,78,0.00,,---,0.01,VWS V13.00,2014-02-20 01:43:00,
2014-02-19 20:48:00,52.2,45.6,30.07,SW,217,7.0,11.0,78,0.00,,---,0.01,VWS V13.00,2014-02-20 01:48:00,
2014-02-19 20:53:00,52.3,45.7,30.07,SW,219,5.0,12.0,78,0.00,,---,0.01,VWS V13.00,2014-02-20 01:53:00,
2014-02-19 20:58:00,52.3,45.7,30.07,SW,218,8.0,12.0,78,0.00,,---,0.01,VWS V13.00,2014-02-20 01:58:00,
2014-02-19 21:03:00,52.3,45.7,30.07,WSW,244,5.0,10.0,78,0.00,,---,0.01,VWS V13.00,2014-02-20 02:03:00,
2014-02-19 21:08:00,52.3,45.7,30.07,SW,233,7.0,11.0,78,0.00,,---,0.01,VWS V13.00,2014-02-20 02:08:00,
2014-02-19 21:13:00,52.3,45.7,30.07,SW,232,8.0,11.0,78,0.00,,---,0.01,VWS V13.00,2014-02-20 02:13:00,
2014-02-19 21:18:00,52.3,45.7,30.08,SW,227,8.0,11.0,78,0.00,,---,0.01,VWS V13.00,2014-02-20 02:18:00,
2014-02-19 21:23:00,52.2,45.6,30.08,West,259,8.0,11.0,78,0.00,,---,0.01,VWS V13.00,2014-02-20 02:23:00,
2014-02-19 21:28:00,52.1,45.5,30.08,SW,235,7.0,11.0,78,0.00,,---,0.01,VWS V13.00,2014-02-20 02:28:00,
2014-02-19 21:33:00,52.1,45.5,30.08,West,259,7.0,7.0,78,0.00,,---,0.01,VWS V13.00,2014-02-20 02:33:00,
2014-02-19 21:38:00,52.1,45.5,30.08,SW,218,5.0,12.0,78,0.00,,---,0.01,VWS V13.00,2014-02-20 02:38:00,
2014-02-19 21:43:00,52.1,45.5,30.08,SW,230,8.0,12.0,78,0.00,,---,0.01,VWS V13.00,2014-02-20 02:43:00,
2014-02-19 21:48:00,52.1,45.5,30.08,SW,224,3.0,12.0,78,0.00,,---,0.01,VWS V13.00,2014-02-20 02:48:00,
2014-02-19 21:53:00,52.1,45.5,30.09,SW,236,6.0,15.0,78,0.00,,---,0.01,VWS V13.00,2014-02-20 02:53:00,
2014-02-19 21:58:00,52.2,45.6,30.09,SW,230,4.0,15.0,78,0.00,,---,0.01,VWS V13.00,2014-02-20 02:58:00,
2014-02-19 22:03:00,52.2,45.6,30.09,SW,218,2.0,7.0,78,0.00,,---,0.01,VWS V13.00,2014-02-20 03:03:00,
2014-02-19 22:08:00,52.1,45.5,30.10,SSW,209,6.0,9.0,78,0.00,,---,0.01,VWS V13.00,2014-02-20 03:08:00,
2014-02-19 22:13:00,52.0,45.4,30.09,SW,234,6.0,10.0,78,0.00,,---,0.01,VWS V13.00,2014-02-20 03:13:00,
2014-02-19 22:18:00,51.9,45.3,30.10,WSW,238,5.0,10.0,78,0.00,,---,0.01,VWS V13.00,2014-02-20 03:18:00,
2014-02-19 22:23:00,51.7,45.1,30.10,WSW,251,4.0,10.0,78,0.00,,---,0.01,VWS V13.00,2014-02-20 03:23:00,
2014-02-19 22:28:00,51.7,45.1,30.10,WSW,249,5.0,10.0,78,0.00,,---,0.01,VWS V13.00,2014-02-20 03:28:00,
2014-02-19 22:33:00,51.6,45.0,30.10,West,267,3.0,9.0,78,0.00,,---,0.01,VWS V13.00,2014-02-20 03:33:00,
2014-02-19 22:38:00,51.5,44.9,30.10,SW,235,5.0,9.0,78,0.00,,---,0.01,VWS V13.00,2014-02-20 03:38:00,
2014-02-19 22:43:00,51.5,44.9,30.10,WSW,244,7.0,10.0,78,0.00,,---,0.01,VWS V13.00,2014-02-20 03:43:00,
2014-02-19 22:48:00,51.7,45.1,30.10,WSW,240,5.0,10.0,78,0.00,,---,0.01,VWS V13.00,2014-02-20 03:48:00,
2014-02-19 22:53:00,51.7,45.1,30.10,WSW,250,3.0,10.0,78,0.00,,---,0.01,VWS V13.00,2014-02-20 03:53:00,
2014-02-19 22:58:00,51.7,45.1,30.11,West,261,5.0,10.0,78,0.00,,---,0.01,VWS V13.00,2014-02-20 03:58:00,
2014-02-19 23:03:00,51.7,45.1,30.11,WSW,244,5.0,8.0,78,0.00,,---,0.01,VWS V13.00,2014-02-20 04:03:00,
2014-02-19 23:08:00,51.7,45.1,30.11,WSW,240,8.0,10.0,78,0.00,,---,0.01,VWS V13.00,2014-02-20 04:08:00,
2014-02-19 23:13:00,51.8,45.2,30.11,WSW,257,4.0,10.0,78,0.00,,---,0.01,VWS V13.00,2014-02-20 04:13:00,
2014-02-19 23:18:00,51.9,45.3,30.11,WSW,242,3.0,10.0,78,0.00,,---,0.01,VWS V13.00,2014-02-20 04:18:00,
2014-02-19 23:23:00,52.1,45.5,30.11,SW,223,4.0,10.0,78,0.00,,---,0.01,VWS V13.00,2014-02-20 04:23:00,
2014-02-19 23:28:00,52.2,45.6,30.11,West,261,3.0,10.0,78,0.00,,---,0.01,VWS V13.00,2014-02-20 04:28:00,
2014-02-19 23:33:00,52.1,45.5,30.11,SW,234,4.0,7.0,78,0.00,,---,0.01,VWS V13.00,2014-02-20 04:33:00,
2014-02-19 23:38:00,52.1,45.5,30.11,WSW,244,5.0,11.0,78,0.00,,---,0.01,VWS V13.00,2014-02-20 04:38:00,
2014-02-19 23:43:00,52.1,45.5,30.11,West,261,3.0,11.0,78,0.00,,---,0.01,VWS V13.00,2014-02-20 04:43:00,
2014-02-19 23:48:00,52.1,45.5,30.11,West,267,4.0,11.0,78,0.00,,---,0.01,VWS V13.00,2014-02-20 04:48:00,
2014-02-19 23:53:00,52.1,45.5,30.11,WSW,247,5.0,11.0,78,0.00,,---,0.01,VWS V13.00,2014-02-20 04:53:00,
2014-02-19 23:58:00,52.1,45.5,30.11,WSW,246,3.0,11.0,78,0.00,,---,0.01,VWS V13.00,2014-02-20 04:58:00,